Gage, OK

1:10 PM CDT on April 25, 2017 (GMT -0500)
Gage

Weather History for KGAG - February, 2013

Change the Weather History Date:

Monday, February 18, 2013

  Actual Average Record
Temperature  
Mean Temperature 39 °F -  
Max Temperature 53 °F 53 °F 89 °F (2016)
Min Temperature 25 °F 24 °F -5 °F (1993)
Degree Days  
Heating Degree Days 26    
Moisture  
Dew Point 22 °F    
Average Humidity 47    
Maximum Humidity 78    
Minimum Humidity 26    
Precipitation  
Precipitation 0.00 in - - ()
Sea Level Pressure  
Sea Level Pressure 29.86 in    
Wind  
Wind Speed 19 mph (NW)    
Max Wind Speed 32 mph    
Max Gust Speed 40 mph    
Visibility 10 miles    
Events      
Averages and records for this station are not official NWS values.
T = Trace of Precipitation, MM = Missing Value Source: NWS Daily Summary

Daily Weather History Graph

Daily Weather History Graph

Search for Another Location

Airport or City:

Trip Planner

Search our weather history database for the weather conditions in past years. The results will help you decide how hot, cold, wet, or windy it might be!

Date:

Astronomy

Feb. 18, 2013 Rise Set
Actual Time 7:22 AM CST 6:23 PM CST
Civil Twilight 6:56 AM CST 6:49 PM CST
Nautical Twilight 6:26 AM CST 7:19 PM CST
Astronomical Twilight 5:56 AM CST 7:49 PM CST
Moon 12:15 PM CST (2/18) 1:59 AM CST (2/18)
Length of Visible Light 11h 52m
Length of Day
11h 00m
First Quarter, 58% of the Moon is Illuminated
Feb 18
First Quarter
Feb 25
Full
Mar 4
Last Quarter
Mar 11
New
Mar 19
First Quarter

Hourly Weather History & Observations

Time (CST) Temp. Windchill Dew Point Humidity Pressure Visibility Wind Dir Wind Speed Gust Speed Precip Events Conditions
12:53 AM 53.1 °F - 21.9 °F 30% 29.52 in 10.0 mi South 27.6 mph 35.7 mph N/A   Clear
1:53 AM 51.1 °F - 24.1 °F 35% 29.50 in 10.0 mi SW 21.9 mph 36.8 mph N/A   Clear
2:53 AM 48.0 °F - 25.0 °F 41% 29.51 in 10.0 mi WSW 18.4 mph - N/A   Clear
3:53 AM 44.1 °F 39.0 °F 24.1 °F 45% 29.56 in 10.0 mi West 9.2 mph - N/A   Clear
4:53 AM 39.0 °F 31.4 °F 21.9 °F 50% 29.60 in 10.0 mi NW 12.7 mph - N/A   Clear
5:53 AM 39.2 °F 34.2 °F 26.6 °F 61% 29.66 in 10.0 mi NW 6.9 mph - N/A   Clear
6:53 AM 39.9 °F 32.5 °F 28.0 °F 63% 29.69 in 10.0 mi North 12.7 mph 21.9 mph N/A   Clear
7:53 AM 39.2 °F 30.8 °F 26.6 °F 61% 29.76 in 10.0 mi NW 15.0 mph - N/A   Clear
8:53 AM 41.0 °F 30.7 °F 26.1 °F 55% 29.80 in 10.0 mi NNW 25.3 mph 34.5 mph N/A   Clear
9:53 AM 44.1 °F 33.7 °F 25.0 °F 47% 29.86 in 10.0 mi North 32.2 mph 40.3 mph N/A   Clear
10:53 AM 46.0 °F 37.0 °F 24.1 °F 42% 29.88 in 10.0 mi North 27.6 mph 38.0 mph N/A   Mostly Cloudy
11:53 AM 48.0 °F - 25.0 °F 41% 29.91 in 10.0 mi NNW 29.9 mph 40.3 mph N/A   Partly Cloudy
12:53 PM 50.0 °F - 24.1 °F 36% 29.91 in 10.0 mi NNW 25.3 mph 35.7 mph N/A   Clear
1:53 PM 51.1 °F - 24.1 °F 35% 29.92 in 10.0 mi North 24.2 mph 34.5 mph N/A   Partly Cloudy
2:53 PM 52.0 °F - 21.9 °F 31% 29.93 in 10.0 mi NNW 21.9 mph 35.7 mph N/A   Scattered Clouds
3:53 PM 52.0 °F - 19.9 °F 28% 29.95 in 10.0 mi NNW 18.4 mph 28.8 mph N/A   Partly Cloudy
4:53 PM 51.1 °F - 17.1 °F 26% 29.98 in 10.0 mi NNW 20.7 mph 29.9 mph N/A   Clear
5:53 PM 48.9 °F - 17.1 °F 28% 30.02 in 10.0 mi NNW 13.8 mph 21.9 mph N/A   Clear
6:53 PM 42.1 °F 37.1 °F 18.0 °F 38% 30.06 in 10.0 mi NNW 8.1 mph - N/A   Clear
7:53 PM 37.9 °F 32.1 °F 19.0 °F 47% 30.09 in 10.0 mi North 8.1 mph - N/A   Clear
8:53 PM 33.1 °F - 19.9 °F 59% 30.11 in 10.0 mi Calm Calm - N/A   Clear
9:53 PM 28.0 °F - 19.9 °F 72% 30.14 in 10.0 mi Calm Calm - N/A   Clear
10:53 PM 25.0 °F 20.7 °F 19.0 °F 78% 30.17 in 10.0 mi WSW 3.5 mph - N/A   Clear
11:53 PM 26.1 °F 18.4 °F 19.9 °F 78% 30.17 in 10.0 mi WSW 6.9 mph - N/A   Clear